"startDT [UTC]","vpos","CH4 [ppm]","stdev(CH4) [ppm]","CO2 [ppm]","stdev(CO2) [ppm]","H2O_reported [%]","stdev(H2O_reported)","CavityPressure [torr]","CavityTemp [C]","OutletValve","CH4_dry [ppm]","CO2_dry [ppm]","DasTemp [C]","EtalonTemp [C]","WarmBoxTemp [C]","MPVPosition","T_ECpre [C]","T_EC1 [C]","T_EC2 [C]","p_inlet [hPa]","p_in [hPa]","p_out [hPa]","T_inlet [C]","RH_inlet [%]","dwpt_inlet [C]","T_vent [C]","RH_vent [%]","dwpt_vent [C]","flow_vent [l min-1]","flow_inlet [l min-1]","dwpt_sample [C]","T_room [C]"
2016-01-13 00:00:00,0.0,1.93139,0.00038,405.277,0.038,0.0635,0.0018,140.002,45.000,31818.33223,1.93261,405.585,35.724,45.069,45.000,0.00,0.09,-272.76,-272.81,-11,516,-963,23.2,1.8,-29.6,23.4,1.9,-29.1,5.73,2.02,-12.1,28.8
2016-01-13 00:01:00,0.0,1.93142,0.00038,405.268,0.038,0.0630,0.0016,139.997,45.000,31818.57250,1.93262,405.577,35.737,45.069,45.000,0.00,0.09,-272.76,-272.82,-11,516,-963,23.2,1.9,-29.6,23.4,1.9,-29.0,5.73,2.02,-12.1,28.8
2016-01-13 00:02:00,0.0,1.93157,0.00028,405.273,0.027,0.0628,0.0018,140.000,45.000,31820.47471,1.93276,405.578,35.731,45.069,45.000,0.00,0.09,-272.75,-272.82,-11,516,-963,23.2,1.9,-29.5,23.4,1.9,-29.1,5.73,2.02,-12.1,28.7
2016-01-13 00:03:00,0.0,1.93124,0.00035,405.276,0.035,0.0634,0.0020,139.997,45.000,31819.77884,1.93247,405.585,35.722,45.069,45.000,0.00,0.09,-272.75,-272.81,-11,516,-963,23.2,1.9,-29.5,23.4,1.9,-29.2,5.73,2.03,-12.1,28.8
2016-01-13 00:04:00,0.0,1.93112,0.00023,405.275,0.036,0.0637,0.0022,139.998,45.000,31823.67847,1.93234,405.586,35.719,45.069,45.000,0.00,0.09,-272.76,-272.82,-11,516,-963,23.2,1.8,-29.8,23.5,1.9,-29.1,5.73,2.03,-12.1,28.8
2016-01-13 00:05:00,0.0,1.93105,0.00045,405.241,0.029,0.0621,0.0013,139.997,45.000,31823.79550,1.93221,405.545,35.713,45.069,45.000,0.00,0.09,-272.75,-272.81,-11,516,-963,23.2,1.8,-29.7,23.5,1.9,-29.3,5.73,2.02,-12.1,28.8
2016-01-13 00:06:00,0.0,1.93102,0.00028,405.263,0.033,0.0628,0.0018,140.000,45.000,31823.68314,1.93223,405.567,35.696,45.069,45.000,0.00,0.09,-272.75,-272.80,-11,516,-963,23.2,1.8,-29.9,23.4,1.9,-29.3,5.73,2.02,-12.1,28.8
2016-01-13 00:07:00,0.0,1.93119,0.00037,405.257,0.031,0.0625,0.0018,139.997,45.000,31822.16635,1.93235,405.561,35.690,45.069,45.000,0.00,0.09,-272.76,-272.82,-10,517,-963,23.2,1.8,-30.0,23.4,1.9,-29.2,5.73,2.01,-12.1,28.9
2016-01-13 00:08:00,0.0,1.93145,0.00026,405.278,0.029,0.0624,0.0012,139.999,45.000,31819.96803,1.93265,405.582,35.687,45.069,45.000,0.00,0.09,-272.76,-272.81,-11,516,-963,23.2,1.8,-30.0,23.3,1.9,-29.3,5.73,2.01,-12.1,28.8
2016-01-13 00:09:00,0.0,1.93148,0.00031,405.305,0.027,0.0632,0.0013,139.999,45.000,31817.71604,1.93268,405.613,35.665,45.069,45.000,0.00,0.09,-272.75,-272.81,-10,516,-963,23.2,1.8,-29.7,23.4,1.9,-29.4,5.73,2.01,-12.1,28.8
2016-01-13 00:10:00,0.0,1.93150,0.00037,405.278,0.030,0.0631,0.0015,140.000,45.000,31817.95304,1.93269,405.585,35.631,45.069,45.000,0.00,0.09,-272.75,-272.81,-10,516,-963,23.2,1.8,-29.9,23.4,1.9,-29.1,5.73,2.01,-12.1,28.8
2016-01-13 00:11:00,0.0,1.93127,0.00038,405.284,0.037,0.0618,0.0012,139.998,45.000,31816.44928,1.93244,405.586,35.617,45.069,45.000,0.00,0.09,-272.76,-272.81,-10,516,-963,23.2,1.8,-29.9,23.4,1.9,-29.4,5.73,2.01,-12.1,28.8
2016-01-13 00:12:00,0.0,1.93136,0.00034,405.278,0.026,0.0621,0.0019,139.999,45.000,31817.49895,1.93255,405.580,35.577,45.069,45.000,0.00,0.09,-272.75,-272.81,-10,516,-963,23.2,1.8,-29.7,23.4,1.9,-29.2,5.73,2.02,-12.1,28.8
2016-01-13 00:13:00,0.0,1.93131,0.00050,405.281,0.035,0.0621,0.0013,139.997,45.000,31817.73899,1.93246,405.584,35.564,45.069,45.000,0.00,0.09,-272.75,-272.81,-11,516,-963,23.2,1.8,-30.0,23.4,1.9,-29.2,5.73,2.01,-12.1,28.8
2016-01-13 00:14:00,0.0,1.93157,0.00037,405.291,0.028,0.0619,0.0016,140.000,45.000,31817.55350,1.93276,405.593,35.599,45.070,45.001,0.00,0.09,-272.76,-272.82,-11,517,-963,23.2,1.8,-30.1,23.4,1.9,-29.1,5.73,2.01,-12.1,28.7
2016-01-13 00:15:00,0.0,1.93148,0.00032,405.286,0.027,0.0611,0.0018,139.999,45.000,31819.25270,1.93265,405.584,35.624,45.070,45.000,0.00,0.09,-272.75,-272.82,-11,517,-963,23.2,1.8,-30.0,23.4,1.9,-29.2,5.73,2.00,-12.1,28.7
2016-01-13 00:16:00,0.0,1.93130,0.00032,405.280,0.044,0.0620,0.0017,139.997,45.000,31819.30185,1.93247,405.583,35.634,45.069,45.000,0.00,0.09,-272.75,-272.81,-11,517,-963,23.2,1.8,-30.1,23.4,1.9,-29.2,5.73,1.99,-12.1,28.8
2016-01-13 00:17:00,0.0,1.93155,0.00043,405.299,0.034,0.0612,0.0017,139.997,45.000,31818.07679,1.93269,405.597,35.685,45.069,45.000,0.00,0.09,-272.76,-272.82,-11,517,-963,23.2,1.8,-30.0,23.5,1.9,-29.3,5.73,1.99,-12.1,28.8
2016-01-13 00:18:00,0.0,1.93155,0.00038,405.294,0.025,0.0617,0.0015,139.997,45.000,31819.26173,1.93275,405.595,35.688,45.069,45.000,0.00,0.09,-272.76,-272.82,-11,517,-963,23.2,1.8,-30.0,23.4,1.9,-29.4,5.73,1.98,-12.1,28.8
2016-01-13 00:19:00,0.0,1.93139,0.00023,405.289,0.026,0.0617,0.0019,139.999,45.000,31820.28992,1.93256,405.589,35.688,45.069,45.000,0.00,0.09,-272.76,-272.81,-11,517,-963,23.2,1.8,-29.9,23.5,1.9,-29.3,5.73,1.97,-12.1,28.8
2016-01-13 00:20:00,0.0,1.93156,0.00034,405.301,0.030,0.0619,0.0022,140.000,45.000,31820.66890,1.93274,405.601,35.739,45.069,45.000,0.00,0.09,-272.76,-272.81,-11,517,-963,23.2,1.8,-30.0,23.5,1.9,-29.3,5.73,1.97,-12.1,28.8
2016-01-13 00:21:00,0.0,1.93151,0.00034,405.290,0.038,0.0614,0.0018,139.999,45.000,31820.90501,1.93268,405.590,35.751,45.069,45.000,0.00,0.09,-272.76,-272.81,-11,517,-963,23.3,1.8,-29.9,23.4,1.9,-29.3,5.73,1.97,-12.1,28.9
2016-01-13 00:22:00,0.0,1.93106,0.00040,405.274,0.030,0.0612,0.0021,140.000,45.000,31823.34145,1.93224,405.572,35.751,45.069,45.000,0.00,0.09,-272.75,-272.81,-11,517,-963,23.3,1.8,-29.9,23.5,1.9,-29.4,5.73,1.97,-12.1,28.9
2016-01-13 00:23:00,0.0,1.93126,0.00033,405.268,0.034,0.0615,0.0011,139.999,45.000,31823.67614,1.93240,405.568,35.749,45.069,45.000,0.00,0.09,-272.75,-272.81,-11,517,-963,23.3,1.8,-30.1,23.5,1.9,-29.3,5.73,1.97,-12.1,28.9
2016-01-13 00:24:00,0.0,1.93127,0.00033,405.288,0.035,0.0614,0.0015,139.999,45.000,31824.87734,1.93244,405.589,35.750,45.069,45.000,0.00,0.09,-272.75,-272.81,-11,517,-963,23.3,1.8,-29.9,23.5,1.9,-29.3,5.73,1.97,-12.1,28.9
2016-01-13 00:25:00,0.0,1.93098,0.00029,405.272,0.031,0.0607,0.0020,140.000,45.000,31826.49479,1.93211,405.566,35.770,45.069,45.000,0.00,0.09,-272.75,-272.82,-11,517,-963,23.3,1.8,-30.1,23.5,1.9,-29.3,5.73,1.98,-12.1,28.9
2016-01-13 00:26:00,0.0,1.93123,0.00027,405.269,0.030,0.0610,0.0021,139.998,45.000,31827.94446,1.93239,405.566,35.776,45.069,45.000,0.00,0.09,-272.75,-272.81,-11,517,-963,23.3,1.8,-29.9,23.5,1.9,-29.3,5.73,1.99,-12.1,28.9
2016-01-13 00:27:00,0.0,1.93122,0.00032,405.255,0.030,0.0609,0.0019,139.999,45.000,31827.35334,1.93238,405.553,35.785,45.069,45.000,0.00,0.09,-272.76,-272.82,-11,517,-963,23.3,1.8,-30.0,23.5,1.9,-29.3,5.73,1.98,-12.1,28.9
2016-01-13 00:28:00,0.0,1.93138,0.00035,405.268,0.035,0.0606,0.0018,140.000,45.000,31828.54599,1.93254,405.563,35.766,45.069,45.000,0.00,0.09,-272.75,-272.82,-11,517,-963,23.3,1.7,-30.1,23.5,1.9,-29.3,5.73,1.99,-12.1,28.9
2016-01-13 00:29:00,0.0,1.93112,0.00035,405.287,0.030,0.0605,0.0015,140.000,45.000,31829.55279,1.93225,405.582,35.767,45.069,45.000,0.00,0.09,-272.75,-272.81,-11,517,-963,23.3,1.8,-30.1,23.5,1.8,-29.5,5.73,1.99,-12.1,28.9
2016-01-13 00:30:00,0.0,1.93132,0.00044,405.298,0.029,0.0603,0.0020,139.998,45.000,31829.27663,1.93248,405.593,35.804,45.069,45.000,0.00,0.09,-272.76,-272.81,-11,517,-963,23.3,1.8,-30.0,23.5,1.8,-29.5,5.73,2.00,-12.1,28.9
2016-01-13 00:31:00,0.0,1.93129,0.00039,405.270,0.026,0.0600,0.0018,140.000,45.000,31830.76202,1.93246,405.562,35.831,45.069,45.000,0.00,0.09,-272.76,-272.81,-11,517,-963,23.4,1.7,-30.1,23.5,1.8,-29.5,5.73,2.00,-12.1,29.0
2016-01-13 00:32:00,0.0,1.93156,0.00047,405.299,0.034,0.0596,0.0018,140.002,45.000,31832.04564,1.93266,405.590,35.875,45.069,45.000,0.00,0.09,-272.75,-272.81,-11,517,-963,23.4,1.8,-30.0,23.5,1.8,-29.5,5.73,2.01,-12.1,29.0
2016-01-13 00:33:00,0.0,1.93130,0.00042,405.269,0.038,0.0602,0.0020,140.000,45.000,31834.55463,1.93245,405.562,35.888,45.069,45.000,0.00,0.09,-272.75,-272.81,-11,517,-963,23.4,1.8,-30.0,23.5,1.8,-29.4,5.73,2.02,-12.1,29.0
2016-01-13 00:34:00,0.0,1.93129,0.00041,405.271,0.030,0.0606,0.0018,140.000,45.001,31835.72999,1.93246,405.566,35.927,45.069,45.000,0.00,0.09,-272.76,-272.82,-11,517,-963,23.4,1.8,-30.0,23.6,1.8,-29.5,5.73,2.03,-12.1,29.0
2016-01-13 00:35:00,0.0,1.93153,0.00046,405.294,0.031,0.0606,0.0014,139.997,45.001,31834.25122,1.93267,405.588,35.963,45.069,45.000,0.00,0.09,-272.75,-272.81,-11,517,-964,23.4,1.7,-30.0,23.6,1.8,-29.4,5.73,2.04,-12.1,29.1
2016-01-13 00:36:00,0.0,1.93118,0.00034,405.301,0.046,0.0601,0.0019,139.997,45.000,31836.68172,1.93232,405.595,35.998,45.069,45.000,0.00,0.09,-272.75,-272.81,-11,517,-964,23.4,1.8,-30.0,23.6,1.8,-29.4,5.73,2.04,-12.1,29.0
2016-01-13 00:37:00,0.0,1.93135,0.00037,405.266,0.030,0.0599,0.0014,140.000,45.000,31838.47860,1.93251,405.558,36.038,45.069,45.000,0.00,0.09,-272.76,-272.82,-11,517,-964,23.4,1.7,-30.2,23.6,1.8,-29.5,5.73,2.04,-12.1,29.1
2016-01-13 00:38:00,0.0,1.93115,0.00027,405.270,0.036,0.0604,0.0016,139.998,45.000,31840.05972,1.93228,405.563,36.078,45.069,45.000,0.00,0.09,-272.76,-272.82,-11,517,-964,23.5,1.7,-30.2,23.6,1.8,-29.5,5.73,2.04,-12.1,29.1
2016-01-13 00:39:00,0.0,1.93123,0.00038,405.276,0.033,0.0605,0.0014,139.999,45.000,31841.43269,1.93239,405.570,36.129,45.069,45.000,0.00,0.09,-272.75,-272.81,-11,517,-964,23.5,1.7,-30.2,23.6,1.8,-29.6,5.73,2.03,-12.2,29.1
2016-01-13 00:40:00,0.0,1.93138,0.00034,405.271,0.034,0.0610,0.0013,140.001,45.000,31844.55400,1.93251,405.569,36.149,45.069,45.000,0.00,0.09,-272.75,-272.81,-11,517,-964,23.5,1.7,-30.1,23.7,1.8,-29.6,5.73,2.01,-12.2,29.2
2016-01-13 00:41:00,0.0,1.93127,0.00036,405.276,0.024,0.0601,0.0021,139.999,45.001,31845.68418,1.93243,405.569,36.174,45.069,45.000,0.00,0.09,-272.75,-272.82,-11,517,-964,23.5,1.7,-30.2,23.7,1.8,-29.5,5.73,2.01,-12.1,29.2
2016-01-13 00:42:00,0.0,1.93153,0.00032,405.273,0.029,0.0599,0.0015,139.999,45.001,31846.60243,1.93267,405.565,36.185,45.069,45.000,0.00,0.09,-272.75,-272.81,-11,517,-964,23.5,1.7,-30.1,23.7,1.8,-29.5,5.73,1.99,-12.2,29.2
2016-01-13 00:43:00,0.0,1.93144,0.00043,405.277,0.027,0.0604,0.0013,140.000,45.001,31848.02186,1.93259,405.571,36.203,45.069,45.000,0.00,0.09,-272.75,-272.81,-11,517,-964,23.5,1.7,-30.1,23.7,1.8,-29.5,5.73,1.96,-12.1,29.3
2016-01-13 00:44:00,0.0,1.93147,0.00035,405.294,0.042,0.0601,0.0017,139.999,45.001,31849.37641,1.93260,405.587,36.259,45.070,45.001,0.00,0.09,-272.76,-272.82,-11,517,-964,23.5,1.7,-30.1,23.7,1.8,-29.5,5.73,1.93,-12.2,29.3
2016-01-13 00:45:00,0.0,1.93145,0.00032,405.306,0.029,0.0607,0.0018,140.000,45.001,31851.34069,1.93262,405.602,36.317,45.070,45.001,0.00,0.09,-272.76,-272.82,-11,517,-964,23.6,1.7,-30.1,23.7,1.8,-29.5,5.73,1.92,-12.2,29.3
2016-01-13 00:46:00,0.0,1.93133,0.00048,405.289,0.038,0.0606,0.0014,139.996,45.001,31853.05624,1.93250,405.584,36.373,45.070,45.001,0.00,0.33,-270.81,-272.68,-11,517,-964,23.6,1.7,-30.1,23.7,1.8,-29.5,5.43,2.10,-17.7,29.3
2016-01-13 00:47:00,0.0,1.93141,0.00027,405.289,0.024,0.0605,0.0018,140.000,45.001,31858.36758,1.93254,405.584,36.453,45.070,45.001,0.00,0.09,-272.76,-272.81,-11,517,-965,23.6,1.7,-30.1,23.8,1.8,-29.5,5.73,1.99,-12.2,29.4
2016-01-13 00:48:00,0.0,1.93151,0.00032,405.305,0.036,0.0607,0.0020,140.001,45.002,31862.17169,1.93265,405.601,36.528,45.070,45.001,0.00,0.09,-272.76,-272.81,-11,517,-965,23.6,1.7,-30.1,23.8,1.8,-29.5,5.73,2.04,-12.2,29.4
2016-01-13 00:49:00,0.0,1.93131,0.00034,405.316,0.030,0.0599,0.0020,139.999,45.002,31866.48673,1.93248,405.609,36.638,45.070,45.001,0.00,0.09,-272.75,-272.81,-11,517,-965,23.6,1.7,-30.1,23.8,1.8,-29.4,5.73,2.09,-12.2,29.5
2016-01-13 00:50:00,0.0,1.93150,0.00043,405.332,0.034,0.0601,0.0015,140.001,45.002,31869.36554,1.93266,405.625,36.717,45.070,45.001,0.00,0.09,-272.75,-272.80,-11,517,-965,23.7,1.7,-30.1,23.8,1.8,-29.5,5.73,2.08,-12.2,29.5
2016-01-13 00:51:00,0.0,1.93131,0.00043,405.337,0.034,0.0599,0.0015,140.001,45.002,31874.71744,1.93243,405.629,36.782,45.070,45.001,0.00,0.09,-272.76,-272.82,-11,517,-965,23.7,1.7,-30.3,23.8,1.8,-29.6,5.73,2.03,-12.2,29.5
2016-01-13 00:52:00,0.0,1.93154,0.00036,405.343,0.030,0.0588,0.0015,139.997,45.002,31876.37789,1.93266,405.629,36.843,45.070,45.001,0.00,0.09,-272.75,-272.82,-11,517,-965,23.7,1.7,-30.5,23.8,1.8,-29.7,5.73,1.97,-12.2,29.5
2016-01-13 00:53:00,0.0,1.93130,0.00031,405.340,0.026,0.0580,0.0016,140.001,45.002,31883.06867,1.93240,405.623,36.914,45.070,45.001,0.00,0.09,-272.74,-272.81,-11,517,-966,23.7,1.6,-30.5,23.9,1.7,-29.8,5.73,1.92,-12.2,29.6
2016-01-13 00:54:00,0.0,1.93167,0.00028,405.351,0.028,0.0578,0.0016,139.998,45.002,31885.39145,1.93275,405.631,36.988,45.070,45.001,0.00,0.09,-272.75,-272.82,-11,518,-966,23.7,1.6,-30.5,23.9,1.7,-29.8,5.73,1.90,-12.2,29.6
2016-01-13 00:55:00,0.0,1.93167,0.00029,405.341,0.028,0.0582,0.0017,140.000,45.002,31889.56188,1.93278,405.626,37.055,45.069,45.000,0.00,0.09,-272.75,-272.82,-11,518,-966,23.7,1.6,-30.7,23.8,1.7,-29.9,5.73,1.94,-12.2,29.6
2016-01-13 00:56:00,0.0,1.93192,0.00042,405.351,0.023,0.0578,0.0020,140.002,45.002,31892.13258,1.93302,405.633,37.112,45.069,45.001,0.00,0.09,-272.75,-272.81,-11,518,-966,23.8,1.6,-30.7,23.9,1.7,-29.9,5.73,2.02,-12.2,29.7
2016-01-13 00:57:00,0.0,1.93206,0.00044,405.361,0.032,0.0576,0.0015,139.998,45.001,31893.95085,1.93315,405.641,37.173,45.069,45.000,0.00,0.09,-272.76,-272.81,-11,518,-966,23.8,1.6,-30.7,23.9,1.7,-29.9,5.73,2.09,-12.2,29.7
2016-01-13 00:58:00,0.0,1.93171,0.00032,405.339,0.028,0.0564,0.0015,139.998,45.001,31899.27277,1.93278,405.614,37.247,45.069,45.001,0.00,0.09,-272.76,-272.82,-11,518,-966,23.8,1.6,-30.7,23.9,1.7,-29.9,5.73,2.09,-12.2,29.7
2016-01-13 00:59:00,0.0,1.93160,0.00036,405.322,0.032,0.0580,0.0015,139.997,45.001,31904.90213,1.93272,405.605,37.307,45.069,45.000,0.00,0.09,-272.75,-272.82,-11,518,-966,23.8,1.6,-30.6,24.0,1.7,-29.9,5.73,2.04,-12.2,29.8
2016-01-13 01:00:00,0.0,1.93173,0.00034,405.329,0.034,0.0589,0.0018,140.001,45.001,31907.63813,1.93282,405.615,37.345,45.069,45.000,0.00,0.09,-272.74,-272.81,-11,518,-966,23.8,1.6,-30.5,24.0,1.7,-29.8,5.73,1.96,-12.2,29.8
2016-01-13 01:01:00,0.0,1.93194,0.00042,405.343,0.036,0.0602,0.0020,139.998,45.001,31907.59606,1.93309,405.637,37.388,45.069,45.001,0.00,0.09,-272.75,-272.81,-11,518,-967,23.9,1.6,-30.4,24.0,1.7,-29.7,5.73,1.90,-12.2,29.8
2016-01-13 01:02:00,0.0,1.93225,0.00042,405.352,0.030,0.0595,0.0012,139.998,45.001,31909.01365,1.93337,405.642,37.448,45.069,45.001,0.00,0.09,-272.75,-272.81,-11,518,-967,23.9,1.7,-30.3,24.0,1.8,-29.6,5.73,1.89,-12.2,29.8
2016-01-13 01:03:00,0.0,1.93210,0.00042,405.331,0.034,0.0598,0.0016,139.999,45.001,31911.83747,1.93324,405.624,37.495,45.069,45.001,0.00,0.09,-272.75,-272.80,-11,518,-967,23.9,1.7,-30.2,24.0,1.8,-29.6,5.73,1.96,-12.2,29.9
2016-01-13 01:04:00,0.0,1.93222,0.00031,405.351,0.030,0.0593,0.0017,139.999,45.001,31912.25396,1.93335,405.641,37.517,45.069,45.001,0.00,0.09,-272.76,-272.81,-11,518,-967,23.9,1.7,-30.3,24.0,1.8,-29.5,5.73,2.06,-12.2,29.9
2016-01-13 01:05:00,0.0,1.93211,0.00038,405.350,0.038,0.0594,0.0017,139.997,45.001,31915.14944,1.93325,405.640,37.560,45.069,45.001,0.00,0.09,-272.75,-272.82,-11,518,-967,23.9,1.7,-30.2,24.0,1.8,-29.5,5.73,2.11,-12.2,29.9
2016-01-13 01:06:00,0.0,1.93188,0.00028,405.327,0.020,0.0603,0.0013,139.999,45.001,31919.69043,1.93302,405.620,37.594,45.069,45.001,0.00,0.09,-272.74,-272.81,-11,518,-967,24.0,1.7,-30.2,24.0,1.8,-29.5,5.73,2.07,-12.2,30.0
2016-01-13 01:07:00,0.0,1.93210,0.00031,405.357,0.029,0.0604,0.0012,139.998,45.001,31920.31439,1.93325,405.650,37.650,45.069,45.001,0.00,0.09,-272.74,-272.81,-11,518,-967,24.0,1.7,-30.2,24.1,1.8,-29.5,5.73,1.99,-12.2,30.0
2016-01-13 01:08:00,0.0,1.93210,0.00042,405.343,0.039,0.0602,0.0017,140.000,45.001,31922.67112,1.93324,405.636,37.700,45.069,45.001,0.00,0.09,-272.75,-272.82,-11,518,-967,24.0,1.7,-30.2,24.1,1.8,-29.5,5.73,1.90,-12.2,30.0
2016-01-13 01:09:00,0.0,1.93217,0.00035,405.347,0.033,0.0609,0.0020,139.999,45.001,31924.15083,1.93332,405.645,37.744,45.069,45.001,0.00,0.09,-272.75,-272.81,-11,518,-967,24.0,1.7,-30.1,24.1,1.8,-29.5,5.73,1.89,-12.2,30.0
2016-01-13 01:10:00,0.0,1.93220,0.00045,405.363,0.033,0.0611,0.0015,139.999,45.001,31926.99910,1.93333,405.659,37.752,45.069,45.000,0.00,0.09,-272.75,-272.80,-11,518,-967,24.0,1.7,-30.0,24.1,1.7,-29.8,5.73,1.95,-12.1,30.0
2016-01-13 01:11:00,0.0,1.93240,0.00045,405.335,0.031,0.0622,0.0017,139.999,45.001,31928.09224,1.93362,405.640,37.787,45.069,45.001,0.00,0.09,-272.76,-272.82,-11,518,-968,24.0,1.7,-30.0,24.1,1.7,-29.7,5.73,2.05,-12.1,30.1
2016-01-13 01:12:00,0.0,1.93222,0.00027,405.334,0.028,0.0617,0.0018,139.998,45.000,31930.69584,1.93338,405.634,37.816,45.069,45.001,0.00,0.09,-272.76,-272.81,-11,519,-968,24.0,1.7,-29.8,24.2,1.7,-29.6,5.73,2.11,-12.1,30.1
2016-01-13 01:13:00,0.0,1.93234,0.00032,405.350,0.031,0.0620,0.0016,140.000,45.000,31933.84146,1.93354,405.651,37.845,45.069,45.001,0.00,0.09,-272.75,-272.81,-11,519,-968,24.1,1.7,-29.8,24.2,1.7,-29.6,5.73,2.07,-12.1,30.1
2016-01-13 01:14:00,0.0,1.93239,0.00040,405.363,0.029,0.0621,0.0018,139.997,45.001,31933.40574,1.93356,405.666,37.860,45.069,45.001,0.00,0.09,-272.75,-272.81,-11,519,-968,24.1,1.7,-29.8,24.2,1.7,-29.6,5.73,1.98,-11.6,30.1
2016-01-13 01:15:00,0.0,1.93202,0.00031,405.355,0.034,0.0624,0.0012,140.000,45.001,31936.82169,1.93322,405.660,37.874,45.069,45.001,0.00,0.09,-272.75,-272.82,-11,518,-968,24.1,1.7,-29.7,24.2,1.7,-29.6,5.73,1.89,-11.3,30.2
2016-01-13 01:16:00,0.0,1.93211,0.00038,405.343,0.026,0.0626,0.0014,140.000,45.001,31939.30864,1.93329,405.647,37.880,45.069,45.001,0.00,0.09,-272.75,-272.80,-11,518,-968,24.1,1.7,-29.7,24.2,1.7,-29.6,5.73,1.88,-11.4,30.2
2016-01-13 01:17:00,0.0,1.93226,0.00041,405.349,0.024,0.0628,0.0012,139.997,45.001,31940.77259,1.93346,405.655,37.882,45.069,45.001,0.00,0.09,-272.75,-272.80,-11,519,-968,24.1,1.7,-29.6,24.2,1.8,-29.5,5.73,1.96,-11.5,30.2
2016-01-13 01:18:00,0.0,1.93235,0.00040,405.347,0.030,0.0631,0.0016,139.998,45.001,31941.31065,1.93355,405.655,37.914,45.069,45.001,0.00,0.09,-272.75,-272.82,-11,519,-968,24.1,1.7,-29.7,24.2,1.8,-29.4,5.73,2.07,-11.6,30.2
2016-01-13 01:19:00,0.0,1.93236,0.00042,405.343,0.038,0.0625,0.0015,139.999,45.001,31942.08115,1.93354,405.647,37.939,45.069,45.001,0.00,0.09,-272.75,-272.81,-11,519,-968,24.1,1.7,-29.7,24.2,1.8,-29.4,5.73,2.11,-11.6,30.3
2016-01-13 01:20:00,0.0,1.93246,0.00047,405.360,0.031,0.0625,0.0016,140.001,45.001,31941.74066,1.93362,405.666,37.973,45.069,45.001,0.00,0.09,-272.74,-272.81,-12,519,-968,24.1,1.7,-29.8,24.2,1.8,-29.4,5.73,2.05,-11.7,30.3
2016-01-13 01:21:00,0.0,1.93260,0.00038,405.349,0.032,0.0627,0.0014,139.997,45.000,31943.37184,1.93382,405.654,37.987,45.069,45.001,0.00,0.09,-272.76,-272.81,-12,519,-968,24.2,1.7,-30.1,24.2,1.8,-29.4,5.73,1.94,-11.7,30.3
2016-01-13 01:22:00,0.0,1.93236,0.00055,405.330,0.040,0.0630,0.0019,139.999,45.000,31946.08126,1.93358,405.637,38.000,45.069,45.001,0.00,0.09,-272.75,-272.81,-12,519,-968,24.2,1.7,-30.1,24.3,1.8,-29.4,5.73,1.87,-11.7,30.3
2016-01-13 01:23:00,0.0,1.93257,0.00040,405.352,0.023,0.0629,0.0020,139.999,45.000,31944.72659,1.93375,405.658,38.013,45.069,45.001,0.00,0.09,-272.75,-272.81,-11,519,-968,24.2,1.7,-30.1,24.3,1.8,-29.4,5.73,1.91,-11.8,30.3
2016-01-13 01:24:00,0.0,1.93230,0.00039,405.364,0.033,0.0627,0.0018,139.999,45.001,31947.05460,1.93350,405.670,38.017,45.069,45.000,0.00,0.09,-272.75,-272.81,-11,519,-968,24.2,1.6,-30.2,24.3,1.8,-29.4,5.73,2.02,-11.8,30.3
2016-01-13 01:25:00,0.0,1.93224,0.00038,405.346,0.026,0.0621,0.0018,139.997,45.001,31948.91915,1.93341,405.648,38.012,45.069,45.001,0.00,0.09,-272.75,-272.82,-11,519,-968,24.2,1.7,-30.1,24.3,1.8,-29.4,5.73,2.11,-11.8,30.3
2016-01-13 01:26:00,0.0,1.93246,0.00037,405.353,0.038,0.0635,0.0013,139.999,45.000,31950.82047,1.93368,405.662,38.010,45.069,45.001,0.00,0.09,-272.75,-272.81,-11,519,-969,24.2,1.6,-30.2,24.3,1.8,-29.4,5.73,2.08,-11.9,30.4
2016-01-13 01:27:00,0.0,1.93225,0.00029,405.475,0.065,0.0633,0.0018,139.999,45.001,31950.92165,1.93345,405.784,38.052,45.069,45.001,0.00,0.09,-272.75,-272.80,-11,519,-969,24.2,1.6,-30.1,24.3,1.8,-29.4,5.73,1.97,-11.9,30.4
2016-01-13 01:28:00,0.0,1.93241,0.00028,405.783,0.185,0.0629,0.0020,139.997,45.000,31950.78463,1.93360,406.082,38.053,45.069,45.001,0.00,0.09,-272.75,-272.81,-11,519,-969,24.2,1.6,-30.1,24.3,1.8,-29.4,5.73,1.88,-11.9,30.4
2016-01-13 01:29:00,0.0,1.93234,0.00044,405.919,0.237,0.0635,0.0020,139.999,45.000,31952.41252,1.93355,406.230,38.063,45.069,45.001,0.00,0.09,-272.75,-272.81,-11,519,-969,24.2,1.7,-30.1,24.3,1.8,-29.4,5.73,1.89,-11.9,30.4
2016-01-13 01:30:00,0.0,1.93241,0.00021,406.067,0.189,0.0637,0.0018,140.003,45.000,31954.63376,1.93361,406.368,38.068,45.069,45.001,0.00,0.09,-272.74,-272.80,-12,519,-969,24.2,1.7,-30.1,24.4,1.8,-29.3,5.73,2.00,-12.0,30.4
2016-01-13 01:31:00,0.0,1.93230,0.00030,406.267,0.311,0.0631,0.0016,140.001,45.000,31957.16430,1.93352,406.591,38.064,45.069,45.001,0.00,0.09,-272.75,-272.81,-12,519,-969,24.2,1.7,-30.1,24.3,1.8,-29.4,5.73,2.10,-12.0,30.4
2016-01-13 01:32:00,0.0,1.93239,0.00041,407.109,0.696,0.0636,0.0017,140.000,45.000,31956.22366,1.93357,407.370,38.072,45.069,45.001,0.00,0.09,-272.75,-272.81,-11,519,-969,24.3,1.7,-30.1,24.3,1.8,-29.4,5.73,2.10,-12.0,30.4
2016-01-13 01:33:00,0.0,1.93244,0.00045,407.038,0.752,0.0632,0.0015,140.001,45.000,31957.40502,1.93367,407.364,38.070,45.069,45.001,0.00,0.09,-272.74,-272.81,-11,519,-969,24.3,1.7,-30.1,24.4,1.8,-29.4,5.73,1.98,-12.0,30.5
2016-01-13 01:34:00,0.0,1.93254,0.00036,407.191,0.254,0.0629,0.0020,140.000,45.000,31957.63000,1.93372,407.499,38.069,45.069,45.001,0.00,0.09,-272.74,-272.81,-11,519,-969,24.3,1.7,-30.1,24.4,1.8,-29.3,5.73,1.87,-12.0,30.4
2016-01-13 01:35:00,0.0,1.93252,0.00047,407.117,0.499,0.0638,0.0017,140.000,45.000,31958.86993,1.93375,407.442,38.070,45.069,45.001,0.00,0.09,-272.75,-272.82,-11,519,-969,24.3,1.7,-30.1,24.4,1.8,-29.4,5.73,1.88,-12.0,30.5
2016-01-13 01:36:00,0.0,1.93221,0.00029,406.695,0.866,0.0636,0.0015,139.999,45.000,31960.13675,1.93343,407.001,38.066,45.069,45.001,0.00,0.09,-272.75,-272.81,-11,519,-969,24.3,1.7,-30.0,24.4,1.8,-29.4,5.73,1.99,-12.1,30.5
2016-01-13 01:37:00,0.0,1.93236,0.00038,408.699,1.975,0.0643,0.0023,140.002,45.000,31961.46962,1.93355,408.951,38.083,45.069,45.001,0.00,0.09,-272.74,-272.81,-11,519,-969,24.3,1.6,-30.1,24.4,1.8,-29.3,5.73,2.10,-12.1,30.5
2016-01-13 01:38:00,0.0,1.93240,0.00026,411.983,1.153,0.0633,0.0016,140.001,45.000,31960.32199,1.93361,412.285,38.108,45.069,45.001,0.00,0.09,-272.75,-272.81,-11,519,-969,24.3,1.7,-30.1,24.4,1.8,-29.4,5.73,2.10,-12.1,30.5
2016-01-13 01:39:00,0.0,1.93244,0.00038,414.725,1.049,0.0633,0.0017,140.000,45.000,31960.06573,1.93362,415.036,38.141,45.069,45.000,0.00,0.09,-272.75,-272.81,-12,520,-969,24.3,1.7,-30.0,24.4,1.7,-29.5,5.73,1.99,-12.1,30.5
2016-01-13 01:40:00,0.0,1.93234,0.00036,413.092,1.206,0.0621,0.0021,139.999,45.000,31960.47860,1.93355,413.396,38.171,45.068,45.000,0.00,0.09,-272.75,-272.80,-12,520,-969,24.3,1.7,-30.1,24.4,1.7,-29.5,5.73,1.87,-12.1,30.5
2016-01-13 01:41:00,0.0,1.93226,0.00043,414.308,1.050,0.0632,0.0020,139.999,45.000,31963.20855,1.93345,414.584,38.174,45.068,45.000,0.00,0.09,-272.75,-272.81,-12,520,-969,24.3,1.7,-30.1,24.4,1.7,-29.5,5.73,1.88,-12.1,30.5
2016-01-13 01:42:00,0.0,1.93225,0.00053,414.897,1.296,0.0624,0.0016,139.998,45.000,31962.63656,1.93344,415.285,38.166,45.068,45.000,0.00,0.09,-272.76,-272.81,-11,520,-969,24.3,1.6,-30.2,24.4,1.7,-29.5,5.73,2.00,-12.1,30.5
2016-01-13 01:43:00,0.0,1.93175,0.00034,410.190,1.239,0.0620,0.0019,139.999,45.000,31966.69827,1.93295,410.535,38.186,45.068,45.000,0.00,0.09,-272.75,-272.80,-11,520,-969,24.3,1.6,-30.2,24.4,1.7,-29.5,5.73,2.10,-12.1,30.5
2016-01-13 01:44:00,0.0,1.93205,0.00037,410.020,1.751,0.0628,0.0016,139.996,45.000,31965.99269,1.93325,410.285,38.188,45.068,45.000,0.00,0.09,-272.75,-272.81,-11,520,-969,24.3,1.6,-30.2,24.4,1.7,-29.5,5.73,2.09,-12.1,30.6